Location: Calvatone
(45.1167°N, 10.4333°E)
Time: 11:18:33
(UTC+00:00)

Cosmos 1553 Rocket - Pass Details

Date: 28 January 2023
Orbit: 942 x 1007 km, 82.9° (Epoch: 29 March)

Event Time Altitude Azimuth Distance (km) Brightness Sun altitude
Rises 18:52:26 0° 187° (S) 3,592 7.0 -26.9°
Reaches altitude 10° 18:54:54 10° 187° (S) 2,652 6.3 -27.4°
Maximum altitude 19:00:57 88° 275° (W) 953 3.8 -28.4°
Drops below altitude 10° 19:07:07 10° 8° (N) 2,691 6.3 -29.5°
Sets 19:09:38 0° 9° (N) 3,648 7.0 -30.0°
